Location: Caltech
(34.1382°N, 118.1253°W)
Time: 07:51:03
(UTC-08:00)

ALOS - Visible Passes

Search period start: 27 February 2017 00:00
Search period end: 09 March 2017 00:00
Orbit: 685 x 686 km, 97.9° (Epoch: 26 February)

Date Brightness Start Highest point End Pass type
(mag) Time Alt. Az. Time Alt. Az. Time Alt. Az.
27 Feb 3.1 19:22:58 10° S 19:27:30 51° W 19:32:03 10° NNW visible
28 Feb 2.9 18:23:36 10° SE 18:27:46 33° ENE 18:31:57 10° N visible
28 Feb 4.8 20:01:53 10° SW 20:05:13 19° W 20:08:36 10° NW visible
01 Mar 2.2 19:00:32 10° SSE 19:05:11 89° E 19:09:53 10° NNW visible
02 Mar 3.9 19:38:36 10° SSW 19:42:48 34° W 19:47:03 10° NNW visible
03 Mar 2.4 18:38:28 10° SSE 18:42:57 50° ENE 18:47:27 10° N visible
03 Mar 5.3 20:18:30 10° WSW 20:20:37 13° W 20:22:44 10° WNW visible
04 Mar 2.8 19:15:51 10° S 19:20:27 61° W 19:25:05 10° NNW visible
05 Mar 3.1 18:16:47 10° SE 18:20:46 29° ENE 18:24:46 10° NNE visible
05 Mar 4.6 19:54:29 10° SSW 19:58:08 23° W 20:01:50 10° NW visible
06 Mar 2.2 18:53:30 10° SSE 18:58:09 76° ENE 19:02:50 10° N visible
07 Mar 3.6 19:31:22 10° SSW 19:35:44 40° W 19:40:08 10° NNW visible
08 Mar 2.6 18:31:33 10° SE 18:35:56 42° ENE 18:40:20 10° N visible
08 Mar 5.1 20:10:46 10° SW 20:13:30 15° W 20:16:14 10° WNW visible
